Precipitable_Water
1.60 1.51 1.46 1.37 1.35 1.28 1.28 1.29 1.21 1.19 1.16 1.18 1.09 1.10 1.10 1.07 0.98 0.91 0.92 1.02 1.08 0.97 0.92 0.87 0.85 0.91 1.13 1.02 1.01 0.98 1.03 1.00 1.02 1.08 1.08 1.13 1.15 1.11 1.06 0.96 0.88 0.88 1.01
1.60 1.56 1.51 1.47 1.41 1.35 1.31 1.34 1.21 1.18 1.22 1.23 1.12 1.20 1.12 1.04 0.98 0.92 0.90 0.86 0.91 0.89 0.87 0.83 0.86 0.85 1.00 0.99 0.92 0.83 0.92 0.87 0.87 0.90 0.91 0.93 0.93 0.91 0.93 0.90 0.85 1.01 1.08
1.52 1.56 1.54 1.50 1.50 1.44 1.39 1.33 1.32 1.27 1.32 1.28 1.17 1.20 1.15 1.08 0.97 0.91 0.90 0.88 0.87 0.87 0.80 0.95 0.90 0.84 0.90 0.87 0.81 0.75 0.77 0.86 0.95 0.91 0.77 0.85 0.90 0.92 0.98 1.02 0.90 1.11 1.13
1.52 1.52 1.49 1.47 1.48 1.49 1.43 1.35 1.37 1.32 1.33 1.31 1.21 1.17 1.25 1.12 1.01 0.80 0.78 0.83 0.85 0.83 0.99 1.05 0.95 1.02 0.99 0.83 0.74 0.84 0.89 0.89 0.90 0.90 0.97 0.96 0.93 1.05 1.19 1.17 1.08 1.03 1.03
1.48 1.50 1.47 1.40 1.43 1.48 1.48 1.37 1.33 1.28 1.30 1.34 1.17 1.19 1.34 1.16 1.06 0.93 0.76 0.82 0.87 0.82 1.01 0.98 0.96 1.05 0.91 0.74 0.77 0.89 1.03 1.09 1.12 1.14 1.11 0.94 0.98 1.11 1.19 1.14 1.06 1.08 0.99
1.38 1.46 1.43 1.38 1.35 1.40 1.45 1.42 1.30 1.28 1.22 1.21 1.12 1.28 1.34 1.17 1.07 0.96 0.77 0.77 0.81 0.81 0.90 0.90 0.88 0.94 0.85 0.74 0.85 0.92 1.09 1.19 1.11 1.11 1.09 0.99 0.96 1.10 1.18 1.10 1.03 0.97 0.95
1.28 1.41 1.40 1.39 1.32 1.30 1.33 1.38 1.32 1.26 1.24 1.20 1.23 1.31 1.32 1.12 0.99 0.89 0.76 0.77 0.82 0.82 0.81 0.87 0.87 0.90 0.82 0.71 0.84 0.94 1.05 1.14 1.14 1.06 1.02 0.97 1.01 1.20 1.17 1.08 0.97 0.90 0.85
1.24 1.30 1.32 1.32 1.33 1.26 1.22 1.22 1.24 1.26 1.23 1.26 1.36 1.29 1.27 1.12 0.97 0.86 0.79 0.76 0.78 0.80 0.80 0.87 0.86 0.91 0.86 0.72 0.78 0.99 0.95 1.01 1.02 1.00 0.95 0.93 1.06 1.06 1.02 0.97 0.90 0.85 0.82
1.22 1.17 1.20 1.20 1.22 1.23 1.18 1.14 1.13 1.10 1.16 1.39 1.44 1.41 1.29 1.13 0.98 0.84 0.80 0.76 0.74 0.79 0.87 0.88 0.79 0.91 0.83 0.76 0.91 0.91 0.95 0.96 0.97 0.97 0.93 0.88 1.01 1.02 0.92 0.84 0.81 0.79 0.76
1.15 1.13 1.09 1.19 1.20 1.20 1.21 1.19 1.12 1.05 1.09 1.31 1.40 1.49 1.28 1.16 1.02 0.85 0.80 0.79 0.75 0.77 0.84 0.78 0.91 0.94 0.77 0.87 0.93 0.89 0.95 0.97 0.92 0.90 0.87 0.87 0.97 0.96 0.86 0.77 0.72 0.75 0.72
1.01 1.13 1.12 1.13 1.18 1.22 1.24 1.26 1.21 1.20 1.21 1.22 1.27 1.41 1.38 1.23 1.11 0.88 0.79 0.78 0.77 0.77 0.76 0.85 0.95 0.88 0.77 0.87 0.85 0.94 0.94 0.90 0.89 0.85 0.87 0.93 0.93 0.90 0.84 0.77 0.71 0.70 0.74
0.86 0.97 1.13 1.13 1.24 1.27 1.27 1.28 1.25 1.24 1.22 1.26 1.25 1.35 1.34 1.32 1.19 0.95 0.85 0.77 0.75 0.78 0.77 0.85 0.88 0.76 0.75 0.85 0.81 0.88 0.95 0.93 0.90 0.84 0.89 0.88 0.86 0.86 0.82 0.77 0.74 0.69 0.73
0.80 0.87 1.00 0.95 1.16 1.24 1.29 1.44 1.40 1.28 1.28 1.22 1.28 1.35 1.35 1.29 1.22 1.11 0.95 0.81 0.74 0.76 0.76 0.87 0.84 0.79 0.83 0.81 0.84 0.88 0.94 0.92 0.91 0.86 0.85 0.81 0.88 0.86 0.83 0.77 0.74 0.72 0.74
0.75 0.85 0.93 1.00 1.07 1.21 1.27 1.34 1.42 1.39 1.36 1.38 1.43 1.46 1.34 1.27 1.21 1.21 1.08 0.91 0.81 0.74 0.75 0.82 0.83 0.82 0.89 0.91 0.84 0.87 0.90 0.87 0.88 0.87 0.85 0.81 0.82 0.90 0.87 0.82 0.81 0.74 0.72
0.68 0.77 0.82 0.99 1.01 1.04 1.17 1.19 1.26 1.36 1.40 1.44 1.50 1.54 1.58 1.37 1.23 1.19 1.20 1.14 0.98 0.84 0.81 0.75 0.82 0.83 0.85 0.92 0.89 0.86 0.92 0.88 0.86 0.86 0.84 0.85 0.81 0.81 0.89 0.82 0.76 0.82 0.75
0.67 0.78 0.83 0.83 0.95 1.04 1.05 1.12 1.11 1.20 1.30 1.40 1.52 1.53 1.54 1.52 1.47 1.24 1.13 1.18 1.15 0.96 0.91 0.81 0.84 0.86 0.82 0.88 0.88 0.83 0.88 0.86 0.86 0.85 0.82 0.85 0.82 0.85 0.83 0.85 0.88 0.77 0.76
0.55 0.63 0.65 0.73 0.85 0.91 1.00 1.05 1.12 1.13 1.20 1.20 1.35 1.46 1.48 1.52 1.52 1.46 1.35 1.13 1.18 1.14 1.07 0.93 0.94 0.87 0.83 0.88 0.87 0.85 0.85 0.83 0.82 0.83 0.82 0.83 0.81 0.82 0.83 0.87 0.88 0.78 0.81
0.57 0.55 0.60 0.63 0.64 0.66 0.72 0.89 0.98 1.07 1.15 1.25 1.24 1.26 1.37 1.45 1.46 1.42 1.39 1.35 1.21 1.16 1.21 1.05 0.94 0.84 0.80 0.86 0.83 0.86 0.82 0.82 0.80 0.81 0.82 0.83 0.82 0.84 0.86 0.87 0.85 0.80 0.75
0.49 0.53 0.54 0.56 0.54 0.58 0.65 0.74 0.78 0.83 0.89 1.03 1.19 1.20 1.26 1.35 1.44 1.41 1.41 1.39 1.41 1.30 1.17 1.12 1.11 0.93 0.83 0.81 0.84 0.85 0.80 0.81 0.80 0.81 0.77 0.79 0.81 0.80 0.80 0.79 0.79 0.81 0.82
0.46 0.47 0.51 0.53 0.53 0.55 0.62 0.73 0.72 0.75 0.79 0.95 1.04 1.06 1.14 1.22 1.27 1.30 1.28 1.28 1.35 1.35 1.39 1.22 1.09 1.07 1.00 0.86 0.84 0.81 0.80 0.84 0.83 0.78 0.79 0.80 0.80 0.79 0.75 0.75 0.73 0.76 0.77
0.51 0.50 0.50 0.50 0.52 0.57 0.59 0.67 0.65 0.60 0.73 0.85 0.94 1.02 1.11 1.14 1.13 1.07 1.11 1.13 1.14 1.25 1.30 1.38 1.33 1.12 1.09 1.05 0.91 0.83 0.76 0.82 0.81 0.79 0.78 0.76 0.74 0.76 0.72 0.69 0.70 0.72 0.74
0.40 0.42 0.51 0.52 0.54 0.57 0.62 0.71 0.70 0.65 0.70 0.80 0.88 0.94 1.02 1.08 1.10 1.10 1.11 1.09 1.11 1.09 1.14 1.27 1.34 1.30 1.26 1.24 0.97 0.85 0.64 0.68 0.75 0.78 0.78 0.74 0.72 0.70 0.68 0.69 0.68 0.69 0.71
0.50 0.44 0.42 0.49 0.54 0.59 0.65 0.73 0.72 0.74 0.73 0.74 0.77 0.84 0.95 0.96 1.05 1.03 1.13 1.11 1.09 1.08 0.99 1.11 1.22 1.33 1.20 1.33 1.25 1.03 0.77 0.60 0.65 0.73 0.73 0.76 0.75 0.72 0.72 0.69 0.65 0.65 0.68
0.51 0.55 0.52 0.44 0.50 0.58 0.69 0.70 0.64 0.57 0.53 0.58 0.63 0.76 0.87 0.94 0.99 0.99 1.03 1.09 1.05 1.00 0.96 0.98 1.08 1.12 1.28 1.18 1.26 1.21 1.16 1.00 0.72 0.59 0.70 0.70 0.74 0.73 0.73 0.72 0.68 0.64 0.64
0.52 0.55 0.60 0.57 0.51 0.54 0.63 0.72 0.66 0.61 0.62 0.64 0.70 0.72 0.82 0.91 0.92 0.95 0.98 0.97 0.91 0.94 0.98 0.92 0.92 1.02 1.05 1.09 1.15 1.18 1.15 1.10 1.06 0.77 0.54 0.58 0.71 0.73 0.75 0.74 0.72 0.68 0.66
0.54 0.58 0.62 0.63 0.60 0.59 0.60 0.72 0.68 0.67 0.67 0.65 0.66 0.71 0.78 0.86 0.88 0.95 0.98 0.96 0.94 0.93 0.89 0.90 0.98 0.94 0.92 1.00 1.05 1.08 1.02 0.94 0.91 0.89 0.83 0.74 0.64 0.69 0.77 0.79 0.75 0.70 0.67
Wind_Speed
12 14 13 13 13 12 12 13 12 13 13 13 13 14 14 14 14 14 14 14 14 13 13 12 12 13 13 14 14 14 15 15 15 16 16 16 16 17 16 16 17 17 18
14 15 14 13 13 12 13 13 12 12 12 13 12 13 13 13 12 13 13 13 13 12 12 11 12 12 12 13 13 13 14 14 15 15 15 15 15 15 15 15 16 16 17
15 16 15 14 13 12 12 12 12 12 12 12 12 12 12 12 12 12 13 13 12 12 11 11 11 11 11 12 13 14 14 14 14 14 15 15 14 14 14 15 15 16 16
16 17 15 14 13 13 12 12 12 12 12 11 11 11 11 11 11 12 12 12 12 12 11 11 11 11 12 11 13 13 13 12 12 12 13 14 14 14 15 14 14 14 14
16 17 16 15 14 14 13 12 12 12 12 11 10 11 12 11 10 11 11 12 12 11 11 10 10 10 10 10 11 11 12 12 13 14 14 14 14 13 13 13 13 13 13
16 17 17 16 15 15 14 13 12 12 12 11 10 11 12 10 9 10 11 11 11 11 11 9 9 9 8 9 9 10 10 12 13 13 13 13 13 12 12 12 11 11 11
16 16 16 16 15 15 15 14 13 13 12 12 11 11 11 10 9 9 11 11 11 11 11 9 9 8 8 7 7 8 10 10 11 11 12 12 12 12 11 11 10 10 9
15 15 16 16 15 15 15 15 15 14 13 13 13 12 11 10 9 9 10 11 11 11 10 10 9 8 7 6 7 7 7 7 7 8 9 10 10 10 10 9 9 9 8
14 14 15 15 15 15 15 15 15 15 15 14 13 13 12 10 9 9 11 11 12 11 11 10 10 9 8 7 7 6 5 5 5 7 7 7 8 8 8 8 8 7 8
14 14 14 15 14 14 14 14 15 15 16 16 15 15 13 11 10 10 11 12 12 12 11 10 11 10 9 10 7 7 4 4 4 4 5 5 5 6 6 6 7 8 8
15 14 14 14 14 14 14 14 14 15 15 16 16 16 15 13 11 11 12 12 12 13 12 11 11 10 11 11 9 7 4 3 3 3 4 4 4 4 5 5 5 6 6
16 14 14 14 14 14 14 14 14 15 15 16 16 17 16 15 13 12 13 13 13 13 13 13 12 11 11 11 10 8 5 5 3 3 3 2 2 2 3 4 4 5 5
17 16 14 14 14 14 14 14 14 14 15 16 16 17 17 16 15 14 14 13 14 14 14 14 13 13 12 12 12 10 8 7 6 4 3 2 2 1 2 2 4 4 4
19 18 17 16 16 15 15 15 15 14 15 16 17 17 17 18 17 16 15 15 15 16 15 15 15 15 15 13 13 11 9 9 8 6 5 4 3 2 1 1 2 2 2
20 19 19 18 17 16 15 16 16 17 17 17 18 18 17 17 18 19 17 17 16 16 16 17 16 16 15 16 14 13 11 10 9 8 8 6 5 4 3 2 1 1 1
21 20 20 20 19 18 18 17 17 18 19 19 19 20 20 18 18 19 20 19 18 18 18 18 17 17 16 17 16 15 13 12 11 10 10 8 7 6 5 3 3 2 1
25 23 23 22 21 20 20 20 19 19 19 20 22 23 22 21 21 20 20 21 21 20 19 19 18 18 17 17 17 17 14 14 13 12 12 11 9 8 7 6 5 4 3
27 27 25 25 24 24 23 23 23 22 20 21 22 24 24 23 23 22 21 22 23 23 22 21 19 19 19 19 18 18 17 15 15 14 13 13 11 10 9 8 7 6 6
29 29 29 28 27 27 26 25 26 26 25 24 24 24 26 26 24 24 23 23 23 24 24 24 22 21 21 19 19 20 19 17 16 16 15 15 14 12 12 10 9 8 7
30 30 30 29 29 29 28 27 27 27 28 28 27 27 27 28 28 27 27 26 26 26 25 26 25 24 23 22 20 20 20 20 19 18 17 17 16 15 14 13 12 11 10
28 29 29 29 30 30 30 29 29 29 29 30 30 30 29 29 29 29 29 29 28 28 28 28 26 27 26 25 22 21 21 21 21 21 20 19 18 17 17 15 14 13 12
30 31 31 31 31 31 31 31 30 30 31 31 31 31 32 31 30 30 30 30 30 30 29 29 30 28 28 28 26 24 23 23 23 22 22 22 21 21 19 18 17 16 15
30 32 34 34 34 33 33 33 32 32 31 32 33 33 33 33 33 32 32 32 32 33 31 31 31 30 30 29 28 26 25 26 25 26 25 25 24 23 23 22 20 19 18
33 33 34 36 37 37 37 36 35 35 34 34 34 34 34 35 34 34 33 32 33 34 33 33 33 33 33 31 30 31 27 24 24 24 28 28 28 27 26 25 24 23 21
33 35 35 36 38 39 39 39 37 36 36 35 35 35 36 35 35 35 34 34 33 34 34 35 34 34 34 34 34 32 30 29 28 26 26 28 30 30 29 28 27 26 25
32 33 34 35 37 38 40 39 39 38 37 36 36 35 35 35 35 35 35 35 34 34 34 35 36 36 35 36 36 36 34 32 30 29 28 27 28 30 31 31 30 29 28
Wind_Direction
176 170 163 157 155 153 150 148 144 140 136 133 129 131 131 131 132 132 135 133 129 122 117 110 104 98 90 88 82 80 79 80 79 79 82 83 84 82 83 84 81 79 79
175 172 168 162 156 155 153 152 150 148 144 140 136 136 135 135 136 138 138 139 134 129 122 115 109 104 94 90 83 81 81 80 81 81 81 84 83 82 84 84 82 82 82
178 176 173 170 166 160 158 158 155 154 153 149 145 144 143 139 138 143 144 144 141 135 129 121 112 109 101 92 85 85 86 84 82 81 78 84 84 82 85 86 84 85 82
184 183 181 178 175 171 167 164 163 160 159 158 154 153 151 146 143 145 148 149 148 142 136 128 118 114 107 96 93 89 83 80 78 76 87 84 84 84 85 88 86 87 83
186 189 189 187 184 179 175 173 171 170 167 164 164 162 161 157 154 154 156 156 156 152 145 137 128 123 113 103 103 91 83 76 85 86 86 83 83 84 88 88 87 82 81
186 188 190 190 190 188 185 182 180 179 177 175 172 169 168 166 165 167 167 165 163 162 158 151 145 134 124 116 106 95 88 90 86 86 84 83 82 84 87 86 84 81 75
185 187 188 190 193 195 195 192 189 188 186 185 180 176 174 174 171 173 174 174 172 171 172 166 160 151 141 132 120 104 98 96 91 85 83 83 85 85 83 83 80 77 72
182 187 192 193 195 196 197 199 199 195 194 191 189 185 183 181 182 183 184 184 182 180 180 179 176 171 162 156 143 122 110 98 99 90 87 86 85 82 78 76 73 71 67
186 188 190 192 194 196 199 200 200 201 202 198 195 192 191 193 193 192 191 191 191 189 188 190 191 187 182 169 159 142 119 106 108 102 96 89 88 80 76 68 66 66 65
189 191 192 193 195 196 197 199 202 204 203 202 202 199 200 199 201 200 199 198 199 198 197 197 197 194 192 183 177 165 145 121 123 111 99 95 94 78 70 66 62 66 67
197 195 195 196 197 198 200 202 203 203 203 204 205 206 206 208 210 209 205 205 205 204 204 202 199 202 201 195 192 190 194 169 144 128 125 110 92 82 68 63 62 65 66
201 201 201 201 201 201 203 205 207 208 207 208 210 211 214 215 214 211 210 211 211 210 210 209 208 207 200 201 206 204 211 201 196 169 158 143 112 91 75 64 66 65 67
208 210 208 208 207 207 208 208 210 211 213 215 216 217 219 218 216 217 217 218 217 215 215 214 213 209 208 213 213 218 227 216 214 203 199 194 174 139 96 68 57 71 65
213 214 214 213 213 214 214 216 216 217 218 220 220 221 222 222 223 224 224 222 221 219 219 217 218 218 221 221 218 218 227 221 222 217 220 215 209 200 192 82 69 59 66
217 218 218 219 219 221 223 224 224 226 225 225 225 223 223 225 229 227 227 225 224 222 223 222 221 224 224 222 221 225 231 225 226 226 223 225 227 222 226 237 244 52 52
222 221 223 224 226 227 228 230 232 232 232 231 230 228 228 230 231 230 230 228 228 225 225 225 226 227 226 224 227 228 228 229 226 230 230 228 234 230 235 239 236 260 272
228 228 228 229 230 231 233 235 236 237 236 236 235 232 234 234 234 234 233 231 230 228 226 227 230 228 227 226 229 228 232 232 231 234 231 232 235 236 238 239 244 249 251
230 231 232 233 234 237 238 240 239 239 239 238 237 236 235 236 236 235 235 234 231 231 231 228 232 230 229 231 230 231 234 235 234 234 234 234 237 236 238 242 247 252 250
234 234 236 237 238 239 241 242 243 242 242 242 240 239 236 236 236 235 236 235 233 233 232 232 233 231 230 231 231 234 235 237 236 236 239 237 237 238 241 244 247 249 247
237 237 238 239 240 241 242 243 244 244 244 242 241 240 238 238 238 239 240 238 236 236 234 233 233 233 232 233 232 235 237 239 239 240 239 238 240 243 242 244 247 248 249
237 237 238 239 241 242 242 242 243 244 243 243 241 240 239 240 241 241 241 239 238 237 236 233 234 233 234 234 234 238 240 239 241 241 240 241 241 241 242 244 246 248 248
242 240 241 241 242 243 243 244 245 244 244 243 242 241 241 241 241 241 242 241 238 238 237 235 236 235 236 235 238 238 243 244 244 244 243 243 243 244 245 246 246 247 247
246 245 244 245 245 246 245 245 246 245 245 243 243 243 242 241 241 241 241 241 239 239 238 236 234 235 236 237 237 241 244 246 245 246 245 245 245 246 246 246 247 247 247
249 250 251 248 248 247 246 245 245 244 244 244 243 242 242 241 241 241 242 241 240 239 239 239 237 238 237 239 239 240 243 244 245 248 248 247 246 247 248 247 248 248 248
252 253 253 252 250 248 247 244 244 244 244 244 242 241 241 241 240 240 241 241 241 240 239 239 238 238 239 239 239 240 244 245 246 251 251 249 248 248 248 247 248 248 248
254 255 255 254 252 249 245 243 242 243 242 242 241 241 240 240 240 240 240 241 241 240 241 241 239 240 240 241 241 242 243 246 248 249 251 250 250 250 248 248 248 247 247